ONEWEB-0108

Last updated on Sun Apr 25 2021 00:02:03 GMT+0000 (Coordinated Universal Time)

1 48076U 21025AL 21114.58336806 -.01087773 00000-0 -37253-1 0 9999 2 48076 87.4252 339.3014 0013086 132.8752 57.0378 15.32935206 1775

Satellite not in orbit